Погода в Кукесе

Албания     42°04′33″N   20°25′22″E
темп.,
°C
ветер,
м/с
пор.,
м/с
влажн.,
%
обл.,
%
осадки,
мм/ч
давл.,
гПа
погр.,
м
16 апреля, пт
пт1623:00−4в229388 0.0 102437
02:00−2св239488 0.1 1022276
05:00−2ссв339266 0.0 1021173
08:000ссв337815 0.0 1021412
11:00+4с436323 0.0 1019871
14:00+6ссз435999 0.0 1018920
17:00+5с3361100 0.0 1017589
20:00+3св2370100 0.0 1017139
17 апреля, сб
сб1723:00+1всв2287100 1.3 1018262
02:000всв2299100 5.3 101891
05:000ссв349999 1.1 1017138
08:00+1ссв34100100 1.3 1016169
11:00+3ссв33100100 0.0 1014170
14:00+3ссв33100100 0.0 1012189
17:00+2ссв22100100 0.0 1012151
20:00+2ссв33100100 0.3 1013149
18 апреля, вс
вс1823:00+2св23100100 6.3 1013113
02:00+2с11100100 9.4 101285
05:00+3ююз1199100 5.3 101165
08:00+3зюз1199100 7.0 101180
11:00+5юз2498100 2.3 1012372
14:00+5зюз2399100 3.4 1013247
17:00+4зюз2498100 0.6 1014495
20:00+4юз229596 0.6 101596
19 апреля, пн
пн1923:00+3ююз119367 0.0 101410
02:00+3вюв119152 0.1 101310
05:00+1всв1189100 0.0 101215
08:00+3с229399 0.1 1011235
11:00+2зсз32100100 2.2 1011154
14:00+3ссв2299100 6.1 1010205
17:00+3с2299100 0.3 1010324
20:00+2сз119982 0.4 1012167
20 апреля, вт
вт2023:00+2юз3499100 0.2 1013432
02:00+2юз359894 0.3 1013287
05:00+2юз359985 0.3 1014274
08:00+2юз4598100 0.8 1015319
11:00+6юз457853 0.3 1015922
14:00+7юз457156 0.6 10141154
17:00+6юз457355 0.3 1015994
20:00+3ююз45924 0.4 101895